Content
SEND FEEDBACK

Daily
Averages
Monthly
Summary
United States of America

LATOUCHE, ALASKA


Home > North America > United States > Alaska
Elevation: 46 feet     Latitude: 59 25N     Longitude: 146 19W

WEATHER
 
SELECT A DAY
Number of Records: 457,779;   Date Range: 1/1/95 - 9/29/14
 
SHARE

PRINT THIS DATA

[ ← Previous Day ]
WEATHER ALMANAC - JANUARY 31, 2013
[ Next Day → ]
[ °C ]   °F
Weather ElementAverageHighLow
Temperature38.9 °F41 °F (12:36 am)37.4 °F (4:16 pm)
Dewpoint37.9 °F39.2 °F (12:36 am)35.6 °F (2:56 pm)
Humidity96.5 %100 % (12:56 am)87 % (2:56 pm)
Barometer29.83 in29.91 in (9:36 pm)29.73 in (12:36 am)
Wind Speed8 mph17.3 mph (10:16 pm)
Wind Gust19.6 mph (10:36 pm)
Weather ElementAverage
Visibility5.3 mi
Wind DirectionS (175.2 °)

Weather ElementTotal
Precipitation0.19 in
Heating Degree Days25.8 (Base 65)
Averaged from 69 records on January 31, 2013
WEATHER CONDITIONS BREAKOUT
WIND DIRECTION BREAKOUT
WEATHER BY HOUR - JANUARY 31, 2013
[ °C ]   °F
Local TimeTemperatureDewpointHumidityBarometerVisibilityWind DirectionWind SpeedGust SpeedPrecipitationEventsConditions
12:36 AM41.0 °F39.2 °F93 %29.73 in2.0 miSouth (190°)11.5 mphOvercast
12:56 AM39.2 °F39.2 °F100 %29.74 in1.8 miSouth (190°)9.2 mphOvercast
1:16 AM39.2 °F39.2 °F100 %29.74 in2.5 miSouth (190°)9.2 mphOvercast
1:36 AM39.2 °F39.2 °F100 %29.74 in5.0 miSSW (200°)9.2 mphOvercast
1:56 AM39.2 °F39.2 °F100 %29.74 in5.0 miSouth (190°)8.1 mph0.02 inOvercast
2:16 AM39.2 °F39.2 °F100 %29.74 in5.0 miSouth (190°)8.1 mph0.02 inOvercast
2:36 AM39.2 °F39.2 °F100 %29.74 in5.0 miSouth (180°)6.9 mph0.04 inOvercast
2:56 AM39.2 °F39.2 °F100 %29.74 in5.0 miSouth (190°)5.8 mph0.06 inOvercast
3:16 AM39.2 °F39.2 °F100 %29.74 in7.0 miSouth (190°)5.8 mph0.01 inOvercast
3:36 AM39.2 °F39.2 °F100 %29.74 in5.0 miSouth (190°)6.9 mph0.02 inOvercast
3:56 AM39.2 °F39.2 °F100 %29.74 in5.0 miSSW (210°)5.8 mph0.02 inOvercast
4:16 AM39.2 °F39.2 °F100 %29.74 in3.0 miSW (220°)6.9 mphOvercast
4:36 AM39.2 °F39.2 °F100 %29.74 in3.0 miSW (220°)6.9 mphOvercast
4:56 AM39.2 °F37.4 °F93 %29.74 in3.0 miSW (220°)6.9 mphOvercast
5:16 AM39.2 °F39.2 °F100 %29.74 in2.0 miSW (220°)6.9 mphOvercast
5:36 AM39.2 °F39.2 °F100 %29.75 in6.0 miSW (220°)6.9 mphOvercast
5:56 AM39.2 °F39.2 °F100 %29.75 in5.0 miSW (230°)5.8 mphOvercast
6:16 AM39.2 °F39.2 °F100 %29.75 in5.0 miWSW (240°)6.9 mphOvercast
6:36 AM39.2 °F39.2 °F100 %29.75 in7.0 miWSW (240°)6.9 mphOvercast
6:56 AM39.2 °F39.2 °F100 %29.76 in3.0 miWSW (240°)6.9 mphOvercast
7:16 AM39.2 °F39.2 °F100 %29.76 in0.5 miWSW (250°)9.2 mphOvercast
7:36 AM39.2 °F39.2 °F100 %29.77 in0.5 miWest (270°)9.2 mphOvercast
7:56 AM39.2 °F39.2 °F100 %29.77 in0.5 miWest (280°)8.1 mphOvercast
8:16 AM39.2 °F37.4 °F93 %29.77 in0.8 miWest (280°)6.9 mphOvercast
8:36 AM39.2 °F39.2 °F100 %29.78 in0.8 miWest (280°)11.5 mphOvercast
8:56 AM39.2 °F39.2 °F100 %29.78 in0.2 miWest (280°)11.5 mphOvercast
9:16 AM39.2 °F37.4 °F93 %29.79 in0.2 miWest (280°)11.5 mphOvercast
9:36 AM39.2 °F37.4 °F93 %29.79 in0.2 miWest (280°)11.5 mph17.3 mphOvercast
9:56 AM39.2 °F39.2 °F100 %29.80 in5.0 miWest (270°)13.8 mphOvercast
10:16 AM39.2 °F37.4 °F93 %29.81 in3.0 miWSW (250°)10.4 mphOvercast
10:36 AM39.2 °F37.4 °F93 %29.82 in10.0 miWSW (250°)10.4 mphOvercast
10:56 AM39.2 °F37.4 °F93 %29.83 in7.0 miWest (260°)11.5 mphOvercast
11:16 AM39.2 °F37.4 °F93 %29.83 in10.0 miWest (260°)10.4 mphOvercast
11:36 AM39.2 °F37.4 °F93 %29.84 in10.0 miWest (270°)8.1 mphOvercast
11:56 AM39.2 °F37.4 °F93 %29.84 in6.0 miWest (270°)8.1 mphOvercast
12:16 PM39.2 °F37.4 °F93 %29.84 in10.0 miWest (270°)5.8 mphOvercast
12:36 PM39.2 °F37.4 °F93 %29.85 in10.0 miWest (260°)8.1 mphOvercast
12:56 PM39.2 °F37.4 °F93 %29.85 in10.0 miWest (260°)6.9 mphOvercast
1:16 PM39.2 °F37.4 °F93 %29.85 in10.0 miWest (280°)4.6 mphOvercast
1:36 PM39.2 °F37.4 °F93 %29.86 in10.0 miWest (260°)4.6 mphOvercast
1:56 PM39.2 °F37.4 °F93 %29.87 in10.0 miWest (270°)3.5 mphOvercast
2:16 PM39.2 °F37.4 °F93 %29.87 in10.0 miWest (270°)3.5 mphOvercast
2:36 PM39.2 °F37.4 °F93 %29.88 in10.0 miWNW (290°)4.6 mphOvercast
2:56 PM39.2 °F35.6 °F87 %29.88 in10.0 miWest (280°)4.6 mphOvercast
3:16 PM39.2 °F35.6 °F87 %29.88 in2.5 miWest (260°)4.6 mphOvercast
3:36 PM39.2 °F37.4 °F93 %29.88 in2.5 miCalmOvercast
3:56 PM39.2 °F37.4 °F93 %29.88 in4.0 miCalmOvercast
4:16 PM37.4 °F35.6 °F93 %29.88 in4.0 miCalmOvercast
4:36 PM37.4 °F35.6 °F93 %29.89 in10.0 miCalmOvercast
5:16 PM37.4 °F37.4 °F100 %29.89 in10.0 miCalmOvercast
5:36 PM37.4 °F35.6 °F93 %29.90 in10.0 miSE (130°)4.6 mphOvercast
6:16 PM37.4 °F37.4 °F100 %29.90 in10.0 miEast (100°)4.6 mphOvercast
6:36 PM37.4 °F37.4 °F100 %29.90 in10.0 miNNE (30°)4.6 mphOvercast
6:56 PM37.4 °F35.6 °F93 %29.90 in10.0 miNE (50°)4.6 mphOvercast
7:16 PM37.4 °F37.4 °F100 %29.90 in10.0 miNNE (30°)5.8 mphOvercast
7:36 PM37.4 °F37.4 °F100 %29.89 in10.0 miNNE (20°)8.1 mphMostly Cloudy
7:56 PM37.4 °F35.6 °F93 %29.90 in10.0 miNE (50°)8.1 mphOvercast
8:16 PM37.4 °F37.4 °F100 %29.90 in10.0 miNE (50°)6.9 mphOvercast
8:36 PM37.4 °F37.4 °F100 %29.90 in4.0 miNE (50°)10.4 mphOvercast
8:56 PM37.4 °F35.6 °F93 %29.90 in1.0 miNE (50°)11.5 mphOvercast
9:16 PM37.4 °F37.4 °F100 %29.90 in0.8 miNE (50°)11.5 mphOvercast
9:36 PM39.2 °F39.2 °F100 %29.91 in3.0 miENE (70°)13.8 mphOvercast
9:56 PM39.2 °F39.2 °F100 %29.91 in1.5 miENE (70°)12.7 mphOvercast
10:16 PM39.2 °F37.4 °F93 %29.91 in1.5 miEast (80°)17.3 mphOvercast
10:36 PM39.2 °F39.2 °F100 %29.91 in1.8 miEast (80°)16.1 mph19.6 mphOvercast
10:56 PM39.2 °F39.2 °F100 %29.91 in3.0 miEast (80°)13.8 mphOvercast
11:16 PM39.2 °F37.4 °F93 %29.91 in7.0 miENE (70°)15.0 mphOvercast
11:36 PM39.2 °F37.4 °F93 %29.91 in1.2 miENE (70°)15.0 mphOvercast
11:56 PM39.2 °F37.4 °F93 %29.91 in1.2 miENE (70°)15.0 mphOvercast
Hourly data recorded from PAMD, located miles away from Latouche, Alaska







STORIES FROM OUR PARTNERS